Stündliche Wetter Holopevo

Heute, 21 Juni, Montag

Zeit Temperatur Niederschläge Wind Luftdruck Luftfeuchtigkeit
00:00 +19°C° 0 mm 2 m/S 748 mmHg 87%
01:00 +19°C° 0 mm 2 m/S 748 mmHg 88%
02:00 +19°C° 0 mm 1 m/S 748 mmHg 88%
03:00 +20°C° 0 mm 1 m/S 748 mmHg 87%
04:00 +20°C° 0 mm 1 m/S 748 mmHg 86%
05:00 +20°C° 0 mm 1 m/S 748 mmHg 85%
06:00 +22°C° 0 mm 1 m/S 748 mmHg 79%
07:00 +24°C° 0 mm 1 m/S 748 mmHg 72%
08:00 +26°C° 0 mm 1 m/S 749 mmHg 66%
09:00 +27°C° 0 mm 2 m/S 749 mmHg 60%
10:00 +28°C° 0 mm 2 m/S 748 mmHg 54%
11:00 +29°C° 0 mm 2 m/S 748 mmHg 48%
12:00 +30°C° 0 mm 2 m/S 748 mmHg 47%
13:00 +30°C° 0 mm 2 m/S 748 mmHg 46%
14:00 +30°C° 0 mm 2 m/S 748 mmHg 45%
15:00 +30°C° 0 mm 2 m/S 748 mmHg 49%
16:00 +30°C° 0 mm 2 m/S 748 mmHg 53%
17:00 +30°C° 0 mm 2 m/S 747 mmHg 57%
18:00 +28°C° 0 mm 2 m/S 747 mmHg 64%
19:00 +26°C° 0 mm 2 m/S 748 mmHg 72%
20:00 +24°C° 0 mm 2 m/S 748 mmHg 79%
21:00 +23°C° 0 mm 2 m/S 748 mmHg 83%
22:00 +21°C° 0 mm 2 m/S 748 mmHg 87%
23:00 +20°C° 0 mm 2 m/S 748 mmHg 91%

Morgen, 22 Juni, Dienstag

Zeit Temperatur Niederschläge Wind Luftdruck Luftfeuchtigkeit
00:00 +20°C° 0 mm 2 m/S 748 mmHg 92%
01:00 +20°C° 0 mm 2 m/S 748 mmHg 93%
02:00 +20°C° 0 mm 2 m/S 748 mmHg 95%
03:00 +20°C° 0 mm 2 m/S 748 mmHg 94%
04:00 +21°C° 0 mm 2 m/S 748 mmHg 93%
05:00 +21°C° 0 mm 2 m/S 748 mmHg 92%
06:00 +24°C° 0 mm 2 m/S 748 mmHg 84%
07:00 +26°C° 0 mm 2 m/S 748 mmHg 76%
08:00 +28°C° 0 mm 3 m/S 748 mmHg 68%
09:00 +29°C° 0 mm 3 m/S 748 mmHg 61%
10:00 +30°C° 0 mm 3 m/S 748 mmHg 54%
11:00 +31°C° 0 mm 3 m/S 748 mmHg 47%
12:00 +33°C° 0 mm 3 m/S 748 mmHg 46%
13:00 +33°C° 0 mm 3 m/S 748 mmHg 44%
14:00 +34°C° 0 mm 3 m/S 748 mmHg 43%
15:00 +33°C° 0 mm 3 m/S 748 mmHg 47%
16:00 +33°C° 0 mm 3 m/S 748 mmHg 52%
17:00 +31°C° 0 mm 3 m/S 748 mmHg 56%
18:00 +29°C° 0 mm 3 m/S 748 mmHg 63%
19:00 +27°C° 0 mm 3 m/S 748 mmHg 71%
20:00 +25°C° 0 mm 3 m/S 748 mmHg 78%
21:00 +24°C° 0 mm 3 m/S 748 mmHg 82%
22:00 +22°C° 0 mm 3 m/S 748 mmHg 86%
23:00 +23°C° 0 mm 2 m/S 748 mmHg 89%

übermorgen, 23 Juni, Mittwoch

Zeit Temperatur Niederschläge Wind Luftdruck Luftfeuchtigkeit
00:00 +21°C° 0 mm 2 m/S 748 mmHg 91%
01:00 +21°C° 0 mm 2 m/S 748 mmHg 93%
02:00 +21°C° 0 mm 2 m/S 748 mmHg 94%
03:00 +21°C° 0 mm 2 m/S 749 mmHg 93%
04:00 +23°C° 0 mm 2 m/S 749 mmHg 91%
05:00 +23°C° 0 mm 1 m/S 749 mmHg 90%
06:00 +25°C° 0 mm 2 m/S 749 mmHg 82%
07:00 +27°C° 0 mm 2 m/S 749 mmHg 74%
08:00 +28°C° 0 mm 2 m/S 749 mmHg 66%
09:00 +29°C° 0 mm 2 m/S 749 mmHg 61%
10:00 +31°C° 0 mm 2 m/S 749 mmHg 55%
11:00 +33°C° 0 mm 3 m/S 749 mmHg 50%
12:00 +33°C° 0 mm 3 m/S 749 mmHg 47%
13:00 +34°C° 0 mm 3 m/S 749 mmHg 45%
14:00 +34°C° 0 mm 3 m/S 749 mmHg 43%
15:00 +34°C° 0 mm 2 m/S 748 mmHg 46%
16:00 +34°C° 0 mm 2 m/S 748 mmHg 50%
17:00 +32°C° 0 mm 2 m/S 748 mmHg 54%
18:00 +30°C° 0 mm 2 m/S 748 mmHg 60%
19:00 +28°C° 0 mm 2 m/S 748 mmHg 67%
20:00 +26°C° 0 mm 2 m/S 748 mmHg 74%
21:00 +25°C° 0 mm 2 m/S 748 mmHg 75%
22:00 +24°C° 0 mm 2 m/S 748 mmHg 76%
23:00 +23°C° 0 mm 2 m/S 748 mmHg 77%

24 Juni, Donnerstag

Zeit Temperatur Niederschläge Wind Luftdruck Luftfeuchtigkeit
00:00 +23°C° 0 mm 2 m/S 748 mmHg 79%
01:00 +22°C° 0 mm 1 m/S 748 mmHg 81%
02:00 +22°C° 0 mm 1 m/S 748 mmHg 82%
03:00 +22°C° 0 mm 1 m/S 748 mmHg 82%
04:00 +23°C° 0 mm 1 m/S 748 mmHg 82%
05:00 +23°C° 0 mm 1 m/S 748 mmHg 82%
06:00 +25°C° 0 mm 1 m/S 748 mmHg 76%
07:00 +27°C° 0 mm 1 m/S 748 mmHg 70%
08:00 +28°C° 0 mm 1 m/S 748 mmHg 64%
09:00 +30°C° 0 mm 1 m/S 748 mmHg 59%
10:00 +31°C° 0 mm 2 m/S 748 mmHg 54%
11:00 +32°C° 0 mm 2 m/S 748 mmHg 49%
12:00 +32°C° 0 mm 2 m/S 748 mmHg 47%
13:00 +34°C° 0 mm 2 m/S 748 mmHg 45%
14:00 +34°C° 0 mm 2 m/S 747 mmHg 43%
15:00 +34°C° 0 mm 2 m/S 747 mmHg 46%
16:00 +33°C° 0 mm 1 m/S 747 mmHg 49%
17:00 +33°C° 0 mm 1 m/S 747 mmHg 52%
18:00 +30°C° 0 mm 1 m/S 746 mmHg 59%
19:00 +28°C° 0 mm 1 m/S 746 mmHg 65%
20:00 +26°C° 0 mm 2 m/S 746 mmHg 72%
21:00 +25°C° 0 mm 2 m/S 746 mmHg 75%
22:00 +25°C° 0 mm 2 m/S 746 mmHg 78%
23:00 +24°C° 0 mm 2 m/S 746 mmHg 80%

25 Juni, Freitag

Zeit Temperatur Niederschläge Wind Luftdruck Luftfeuchtigkeit
00:00 +24°C° 0 mm 2 m/S 746 mmHg 84%
01:00 +23°C° 0 mm 2 m/S 746 mmHg 87%
02:00 +22°C° 0 mm 1 m/S 746 mmHg 90%
03:00 +23°C° 0.1 mm 1 m/S 746 mmHg 90%
04:00 +23°C° 0.1 mm 1 m/S 746 mmHg 89%
05:00 +23°C° 0.1 mm 1 m/S 745 mmHg 89%
06:00 +25°C° 0 mm 1 m/S 746 mmHg 83%
07:00 +26°C° 0 mm 2 m/S 746 mmHg 77%
08:00 +28°C° 0 mm 2 m/S 746 mmHg 71%
09:00 +29°C° 0 mm 2 m/S 746 mmHg 65%
10:00 +30°C° 0 mm 2 m/S 746 mmHg 60%
11:00 +32°C° 0 mm 2 m/S 746 mmHg 54%
12:00 +32°C° 0 mm 2 m/S 745 mmHg 52%
13:00 +34°C° 0 mm 2 m/S 745 mmHg 49%
14:00 +34°C° 0 mm 2 m/S 745 mmHg 46%
15:00 +32°C° 0 mm 2 m/S 745 mmHg 50%
16:00 +32°C° 0 mm 2 m/S 744 mmHg 54%
17:00 +31°C° 0 mm 3 m/S 744 mmHg 58%
18:00 +28°C° 1.1 mm 3 m/S 744 mmHg 70%
19:00 +24°C° 1.1 mm 3 m/S 744 mmHg 82%
20:00 +20°C° 1.1 mm 3 m/S 745 mmHg 94%
21:00 +20°C° 0.1 mm 3 m/S 744 mmHg 94%
22:00 +19°C° 0.1 mm 2 m/S 744 mmHg 94%
23:00 +20°C° 0.1 mm 1 m/S 744 mmHg 93%

26 Juni, Samstag

Zeit Temperatur Niederschläge Wind Luftdruck Luftfeuchtigkeit
00:00 +20°C° 0 mm 1 m/S 744 mmHg 93%
01:00 +20°C° 0 mm 1 m/S 743 mmHg 93%
02:00 +20°C° 0 mm 1 m/S 743 mmHg 92%
03:00 +20°C° 0.1 mm 1 m/S 743 mmHg 92%
04:00 +19°C° 0.1 mm 0 m/S 744 mmHg 91%
05:00 +19°C° 0.1 mm 0 m/S 744 mmHg 90%
06:00 +21°C° 0 mm 0 m/S 744 mmHg 85%
07:00 +22°C° 0 mm 0 m/S 744 mmHg 79%
08:00 +24°C° 0 mm 0 m/S 744 mmHg 73%
09:00 +25°C° 0.2 mm 0 m/S 743 mmHg 69%
10:00 +28°C° 0.2 mm 1 m/S 743 mmHg 65%
11:00 +30°C° 0.2 mm 1 m/S 743 mmHg 61%
12:00 +30°C° 0.4 mm 2 m/S 743 mmHg 61%
13:00 +30°C° 0.4 mm 2 m/S 743 mmHg 61%
14:00 +30°C° 0.4 mm 2 m/S 743 mmHg 61%
15:00 +30°C° 0.2 mm 2 m/S 743 mmHg 62%
16:00 +29°C° 0.2 mm 2 m/S 743 mmHg 64%
17:00 +29°C° 0.2 mm 1 m/S 742 mmHg 65%
18:00 +28°C° 0.3 mm 1 m/S 742 mmHg 70%
19:00 +26°C° 0.3 mm 1 m/S 743 mmHg 76%
20:00 +25°C° 0.3 mm 1 m/S 743 mmHg 81%
21:00 +24°C° 0.1 mm 1 m/S 743 mmHg 84%
22:00 +23°C° 0.1 mm 2 m/S 743 mmHg 88%
23:00 +21°C° 0.1 mm 2 m/S 743 mmHg 91%
Mehr zeigen

Wir brauchen deine Erlaubnis

Meteoprog und unser Service Anbieter werden persönliche Daten aufbewahren, so wie Cookies, Geräte Bezeichnung oder ähnliche Technologien von deinem Gerät und Prozess, so wie Persönliche Daten Inhalte und Werbungen, genauso wie social Media und den Verkehr zu analysieren.

  • Aufbewahrung und/oder Zugang zu deiner Geräte Informationen.

    Cookies, Geräte Bezeichnung oder andere Informationen, können aufbewahrt oder Zugang zu deinem Gerät erhalten, für den Grund, der oben angegeben wird.

  • Personalisierte Werbung und Inhalte, Messungen, Einblick in das Publikum und Produkt Entwicklung.

    Werbungen und Inhalte können personalisiert werden, basierend auf ein Profil. Mehr Daten können besser personalisierte Werbungen und Inhalte hinzufügen. Werbung und Inhalte können gezeigt und gemessen werden. Einblicke über das Publikum, welche die Werbung gesehen haben und den Inhalt, können abgeleitet werden. So wie Daten können genutzt werden, um es zu verbessern oder die Benutzer Erfahrung zu verbessern das System und die Software.

Wenn du “Ich stimme zu” klickst, erlaubst du uns, die Cookies zu benutzen die Geräte Bezeichnung, den Web oder ähnliche Technologien zu benutzen. Deine Settings, können in deinem Gerät bei deinem Browser geändert werden.

Für den bestimmten Zweck, berechtigten Interessen beruhen darauf, mehr als auf den Inhalt. Du kannst mehr darüber in unseren Privaten und Cookie Politik lesen.